星链-5566 (STARLINK-5566 )

导读 | 星芒AI

STARLINK-5566 是 SpaceX Starlink 卫星互联网项目中的一颗低轨卫星,属于“星链”计划的数千颗卫星之一。该卫星由 SpaceX 研制并发射,旨在为全球用户提供高速互联网服务,尤其关注网络覆盖不足的地区。STARLINK-5566 运行在约 550 公里的近地轨道,具备先进通信技术,支持高速数据传输和低延迟连接。作为 Starlink 群体的一部分,它有助于构建一个全球性的宽带网络,推动远程教育、医疗和经济发展。

基本信息
目录编号:
56133
目录名称:
STARLINK-5566
国际标识:
2023-046AT
轨道中心:
EARTH
卫星名称:
星链-5566
卫星全名:
星链-5566 (STARLINK-5566 )
卫星状态:
在轨 (已飞行951 天)
发射日期:
2023-03-29 UTC
国别 :
美国 (US)
星等 :
--
轨道信息
数据来源 国际轨道数据
星历时间: 2025-11-04T12:17:54+0800
14小时前
查看轨道信息
半长轴: 6937.22km
偏心率: 0.0001024
轨道倾角: 43.003°
近地点辐角 256.738°
升交点赤经 107.803°
平近点角 103.335°
近地点: 558.374km
远地点: 559.796km
周期: 95.838分钟
每日圈数: 15.025351
详细信息
固有亮度:
5
最大亮度:
2.5
卫星平台:
Starlink v1.5
覆盖范围:
全球
运营商:
太空探索技术公司
运营商所在国:
美国
制造商(研发单位):
太空探索技术公司
制造商所在国:
美国
使用方式:
暂无
卫星简介
星链(Starlink)计划是由太空探索技术公司(SpaceX)提出的一个巨型低轨卫星互联网星座项目,计划在2019年至2024年间在太空搭建由约1.2万颗卫星组成的“星链”网络,其中1584颗将部署在地球上空550千米处的近地轨道,并从2020年开始工作。该卫星仍在工作。
2D轨道图
3D轨道图
轨道高度分析图
轨道倾角分析图
轨道综合分析图
查看轨道综合分析图